Wind_Speed
24 25 24 22 22 23 22 22 23 24 23 21 21 25 28 27 27 28 29 28 29 28 26 24 23 23 24 24 24 23 22 22 22 21 20 19 18 17 17 16 15 15 14 14 13 13 14 15 15 14 12 11 12 13 12 11 11 11 10 8 8 8 8
24 25 25 24 23 24 24 23 23 23 24 23 21 24 27 28 29 28 29 30 29 28 27 26 25 25 25 25 24 23 23 24 23 22 21 20 18 17 17 16 16 15 15 14 15 15 15 15 15 14 12 11 13 14 13 12 12 11 10 9 9 10 8
25 26 27 26 24 25 25 25 23 22 24 23 22 25 26 27 28 26 28 30 29 28 27 26 25 25 26 26 25 24 24 24 23 23 21 19 18 18 18 17 17 17 15 15 16 15 15 15 15 14 13 12 13 15 14 13 12 11 10 10 11 10 9
27 26 27 27 26 24 25 26 23 21 22 21 22 25 26 26 26 26 28 29 28 27 27 26 25 26 26 26 25 24 24 24 24 23 21 19 18 19 18 18 18 17 15 15 16 16 16 16 15 15 14 13 14 15 15 14 13 12 12 12 12 11 10
25 24 24 25 26 25 24 25 23 21 21 19 18 20 23 24 25 27 28 28 26 26 27 26 26 26 26 25 24 24 24 24 23 22 21 20 19 19 19 19 18 17 16 16 16 16 17 16 16 17 15 14 15 16 17 16 15 14 13 13 13 12 11
25 25 23 22 25 25 23 23 23 21 21 20 18 20 22 23 26 28 28 27 27 27 27 27 25 25 26 26 24 23 23 23 23 22 22 22 21 20 19 18 18 17 17 17 17 16 16 17 17 17 16 15 16 17 18 17 16 15 14 14 14 13 12
27 27 26 25 25 25 22 22 22 21 22 23 22 22 23 24 26 28 27 28 28 27 27 27 25 25 26 25 24 23 23 22 22 22 23 22 22 21 19 18 18 18 17 17 17 16 16 17 17 17 17 16 16 17 18 18 17 17 16 14 14 14 13
30 28 27 27 26 24 22 23 22 20 22 26 26 25 25 25 26 27 28 29 29 28 27 26 25 25 25 24 23 23 23 22 21 22 23 22 22 21 20 19 19 18 17 17 17 16 17 18 18 18 17 17 17 18 19 19 19 19 17 14 15 15 14
32 28 26 26 25 23 21 22 22 22 24 27 26 24 26 26 27 29 30 29 28 27 27 26 25 26 26 24 23 23 23 22 21 22 22 22 23 22 20 19 19 19 18 17 17 17 18 18 19 18 17 17 17 18 20 21 21 20 17 14 15 16 15
31 29 26 24 23 22 21 20 21 22 25 26 26 25 26 27 28 30 30 28 27 27 27 27 26 26 25 23 22 23 22 21 21 22 23 23 23 21 20 20 20 19 18 18 18 18 18 18 19 19 17 17 18 19 21 21 21 20 16 14 16 17 16
29 28 25 22 22 22 21 20 20 21 24 24 24 25 26 27 28 28 28 27 26 26 26 26 26 25 24 22 22 23 22 21 22 23 23 24 23 22 21 21 20 19 19 19 19 19 18 19 20 20 18 18 19 19 21 22 21 19 16 15 17 18 16
28 26 23 22 22 22 22 21 20 21 24 24 23 24 25 27 28 28 27 26 25 25 25 25 25 25 24 23 23 24 23 22 23 24 25 25 24 23 23 22 21 19 20 20 20 20 20 21 21 21 20 19 19 20 21 22 22 19 16 16 18 18 16
24 21 21 22 22 22 23 22 20 21 23 24 24 24 24 26 28 28 27 25 24 25 26 25 24 25 26 25 24 24 24 23 24 25 26 26 25 24 23 22 20 20 20 20 21 22 23 23 23 23 21 20 20 21 22 23 23 20 17 16 18 18 16
22 18 19 23 23 22 23 22 21 21 23 24 26 26 25 26 28 28 27 25 25 26 26 26 26 27 27 26 25 25 24 24 25 26 26 26 25 24 23 22 21 20 21 22 23 24 25 25 25 24 22 21 21 22 23 24 23 20 18 17 18 19 16
21 17 18 22 23 23 23 23 22 22 23 25 26 27 27 28 27 27 28 27 26 27 28 28 29 28 28 26 26 26 25 25 26 26 26 25 25 24 23 22 21 21 22 22 23 25 26 26 25 24 22 21 22 23 24 25 23 21 18 17 18 19 17
20 17 18 20 22 22 22 23 24 23 24 25 27 28 30 30 28 28 29 29 28 29 29 29 28 28 27 27 27 26 26 26 27 27 26 26 25 24 23 23 23 23 23 23 24 25 25 25 25 24 22 22 22 23 25 25 24 22 19 18 18 18 18
21 18 18 20 22 22 22 23 24 24 24 24 25 27 30 32 31 30 31 31 30 30 29 28 28 28 28 28 27 27 27 27 27 27 27 26 25 24 23 24 24 24 24 24 24 25 25 25 24 23 23 22 23 24 25 25 24 23 21 19 18 18 18
19 20 21 24 25 24 23 23 24 25 24 22 23 26 29 30 30 30 30 30 29 28 28 28 28 28 28 28 28 28 28 28 28 28 28 27 26 25 25 25 25 24 24 24 25 25 25 24 23 23 23 23 23 24 25 26 25 24 23 22 20 19 19
16 18 21 24 27 27 25 23 25 26 24 21 21 25 26 26 26 28 29 28 27 27 27 27 28 28 28 28 28 29 29 29 30 30 29 28 27 27 26 26 25 25 25 26 27 26 25 24 23 23 22 23 24 25 25 25 24 24 25 25 23 21 21
17 17 18 21 24 27 26 24 25 27 25 21 21 23 23 23 25 27 28 29 28 28 28 29 29 28 28 28 29 29 29 29 29 29 29 28 27 27 26 26 26 26 27 28 28 27 25 24 23 23 23 23 24 24 25 24 24 25 26 26 26 25 24
19 19 18 20 22 24 26 25 25 27 25 22 24 25 25 25 27 27 28 29 29 29 30 30 30 29 29 29 28 28 28 27 27 27 27 26 26 26 26 26 27 28 29 29 29 28 26 24 23 23 23 23 24 25 25 24 24 26 27 27 28 28 28
20 21 21 20 19 20 24 25 24 26 26 25 27 28 28 29 29 28 27 28 29 30 32 32 32 31 29 28 27 26 26 25 25 24 25 25 25 26 27 28 29 29 29 30 30 29 27 25 24 22 22 23 24 25 26 25 25 27 28 28 29 30 30
21 21 21 21 19 17 21 23 23 25 27 28 29 29 29 30 30 29 28 29 31 33 34 34 32 30 28 27 26 26 25 25 24 24 25 26 27 28 29 29 29 29 29 30 30 29 28 27 25 23 23 24 24 25 25 26 27 28 29 30 31 32 32
22 21 22 22 22 21 21 21 22 24 28 30 29 29 31 31 30 28 27 29 32 34 34 33 31 29 28 27 27 26 25 25 25 25 26 27 28 28 29 29 29 29 30 30 30 29 28 27 26 25 25 25 25 25 26 28 29 30 30 31 33 33 34
24 24 25 25 25 26 25 24 23 24 27 29 28 28 31 33 30 27 27 29 32 33 32 30 29 29 28 27 26 26 26 25 25 26 27 28 28 28 28 29 29 29 30 30 30 29 27 26 26 26 26 26 26 27 29 30 31 31 32 33 34 35 36
26 26 26 26 27 28 28 27 26 25 27 31 30 28 31 32 30 27 27 29 32 32 31 30 29 29 28 27 27 26 26 26 25 26 27 28 28 28 29 29 29 29 30 30 30 29 27 27 26 25 25 26 28 30 31 32 32 33 33 34 34 36 37
28 27 27 26 27 29 28 27 28 26 27 32 33 30 32 34 32 31 31 31 32 32 31 31 30 29 28 28 28 27 26 26 25 25 26 27 28 28 29 30 30 29 30 30 30 29 29 28 27 26 25 25 27 30 32 33 33 34 34 35 36 37 38
27 27 28 27 29 31 29 28 29 27 27 32 34 31 33 36 35 34 35 33 33 32 32 31 31 30 29 28 28 28 27 26 25 25 26 27 26 27 27 29 30 29 29 30 30 30 29 28 28 28 28 28 29 31 31 31 33 34 36 37 38 39 39
27 27 28 29 31 32 32 30 29 27 28 33 35 32 33 37 36 34 35 34 33 33 33 32 31 30 29 28 29 29 28 27 26 26 26 26 25 25 26 27 28 29 29 29 30 30 29 29 29 30 30 32 34 33 31 32 35 35 36 38 39 39 39
27 26 28 31 31 31 32 31 30 29 29 33 35 34 35 39 39 35 34 34 34 34 33 31 31 30 29 28 29 30 29 29 28 27 27 27 26 26 26 26 27 28 28 29 30 30 30 30 31 32 32 32 34 33 32 34 36 37 38 39 39 39 39
27 27 29 32 32 32 33 32 32 31 30 32 36 36 37 42 41 37 35 34 35 35 33 30 31 30 29 28 28 28 28 28 28 28 28 28 28 28 27 27 28 29 30 31 32 32 32 33 33 33 33 33 34 34 34 35 36 37 39 40 40 40 39
26 26 28 31 32 32 32 32 32 32 31 32 35 36 38 42 41 38 37 37 36 35 31 29 29 30 30 29 28 28 28 28 29 30 30 29 29 29 30 31 31 32 33 33 34 34 35 35 34 34 34 34 35 35 36 37 38 38 38 39 39 40 40
26 25 25 29 32 32 32 32 32 32 31 33 37 38 39 42 41 39 38 40 39 35 31 30 31 31 31 31 31 30 29 29 30 30 29 28 28 28 30 32 33 34 34 34 35 35 36 37 37 37 37 37 37 37 37 38 40 40 39 39 40 40 41
25 24 24 26 29 30 31 32 32 33 32 33 38 41 40 41 43 40 39 41 41 38 34 34 35 35 36 37 36 34 31 29 28 27 27 27 28 29 30 31 32 33 33 33 34 34 36 37 37 38 39 39 38 38 38 40 42 42 42 41 41 41 41
24 23 23 24 26 29 32 35 38 39 36 33 36 40 40 42 45 44 41 41 41 41 38 37 38 39 39 40 40 37 32 29 26 26 29 32 33 33 33 34 34 34 33 33 34 36 37 37 38 38 38 37 37 38 40 42 43 42 42 41 41 40 41
22 22 21 23 24 31 40 45 46 46 42 38 39 43 44 44 46 48 46 43 40 41 41 41 41 41 40 41 42 39 34 31 31 32 35 37 37 37 36 37 37 36 35 36 37 38 39 38 38 38 38 38 38 39 40 41 41 40 39 38 39 39 40
22 21 20 20 21 25 36 44 48 49 49 47 48 50 50 48 48 49 50 48 44 42 42 42 42 42 42 43 44 41 36 34 35 37 38 40 41 40 38 38 39 38 37 37 37 36 36 36 36 37 39 39 39 39 39 40 39 38 37 37 38 40 42
Wind_Direction
268 266 265 261 254 249 249 252 260 259 247 246 249 242 236 230 225 222 221 225 226 219 214 213 211 212 213 214 214 216 219 221 221 222 226 229 228 228 231 233 237 242 246 249 248 244 242 246 248 245 241 242 246 248 249 250 249 247 244 243 244 251 261
262 263 265 265 259 255 254 251 256 260 249 243 248 246 236 227 221 222 225 226 224 218 213 212 213 213 213 214 215 217 219 221 221 222 227 231 231 231 232 235 238 241 246 249 248 245 244 248 250 247 241 240 247 250 250 248 246 245 245 246 252 261 267
253 256 261 263 260 256 257 255 255 257 249 243 250 249 234 220 218 224 227 224 221 219 216 215 215 214 214 214 214 217 220 222 223 225 229 232 233 233 233 235 237 239 244 249 250 249 248 248 248 247 243 240 246 251 252 247 245 247 248 250 258 268 267
248 250 254 257 256 252 253 255 255 252 246 247 253 245 226 215 216 221 222 219 218 220 218 217 216 215 217 216 215 218 222 224 226 228 232 233 232 232 233 235 237 238 244 249 250 248 247 246 245 244 243 242 245 250 252 249 249 252 253 257 265 269 262
250 248 249 252 252 249 247 247 249 246 244 248 247 231 221 222 221 218 216 215 217 219 217 216 216 216 219 219 218 221 225 227 229 231 232 231 230 231 233 236 238 241 246 249 248 247 246 244 242 242 242 241 244 248 251 251 253 255 256 262 269 265 254
242 241 243 248 249 249 248 245 244 243 241 240 234 225 225 228 222 215 214 215 217 220 220 220 220 219 220 221 220 223 226 228 230 231 232 230 230 232 234 238 241 244 248 249 248 248 247 243 241 243 242 240 242 247 250 252 254 255 255 261 265 257 244
236 235 239 245 246 247 249 245 240 239 236 230 224 223 224 223 220 215 215 217 218 219 222 224 224 223 222 222 221 224 226 227 228 230 231 230 231 233 235 238 242 246 248 248 247 247 246 242 241 242 241 238 240 244 248 252 254 255 256 257 254 243 235
239 237 238 242 244 245 249 247 240 233 232 230 226 223 221 220 218 216 216 219 219 218 219 222 224 225 223 221 221 223 225 226 228 230 231 231 232 233 236 239 244 248 249 249 246 244 243 242 240 240 238 236 238 243 249 253 255 257 257 249 240 234 230
240 240 243 243 243 245 248 250 242 232 231 233 229 225 222 218 216 215 215 218 220 218 217 218 220 223 223 220 220 222 224 226 229 231 231 231 232 234 236 240 245 248 249 248 245 242 240 240 240 239 237 237 239 244 250 254 256 258 255 239 231 232 231
238 240 245 246 245 244 245 249 245 234 230 230 227 224 222 218 216 217 216 216 218 219 218 214 216 220 221 220 221 224 224 225 228 230 231 232 232 234 236 239 243 245 247 246 244 242 239 238 239 239 239 240 243 246 250 254 255 255 249 233 228 233 234
236 239 242 243 243 239 238 244 246 236 228 224 222 222 220 218 218 218 217 216 216 219 220 217 216 219 220 219 222 225 225 226 227 227 230 232 233 233 234 237 241 242 244 245 245 243 239 237 238 240 242 243 244 246 249 251 251 249 243 231 230 235 235
237 242 241 237 237 234 233 240 244 238 231 227 224 223 221 222 221 219 218 218 216 217 220 219 219 220 221 221 224 227 226 225 226 228 230 231 232 233 234 236 239 241 244 246 245 244 241 238 239 242 244 244 243 244 246 247 246 244 239 231 232 236 236
238 243 237 231 232 231 231 237 241 239 237 234 230 227 226 226 223 219 218 220 219 219 219 219 221 222 221 221 223 226 226 225 226 229 231 232 233 234 235 237 241 244 246 246 244 243 242 241 241 243 243 241 240 241 242 243 243 241 236 230 232 237 237
239 241 232 228 229 228 231 236 239 239 237 235 231 229 230 230 226 222 220 220 222 222 222 221 221 221 221 221 222 225 227 228 229 230 231 232 233 235 238 241 246 248 248 247 244 243 243 243 243 243 242 239 237 238 240 242 243 241 235 229 230 237 242
237 237 233 230 229 227 228 231 234 235 233 233 232 230 230 231 229 225 222 222 224 224 223 223 222 223 223 223 225 227 229 230 231 232 232 233 235 238 241 245 250 252 251 249 246 244 243 243 244 245 242 238 237 238 240 242 243 242 236 230 230 238 246
235 239 239 236 232 230 229 227 228 229 228 231 232 232 232 231 229 227 222 221 224 225 223 222 223 224 224 225 228 231 232 233 234 235 236 238 240 241 244 249 253 254 252 249 247 244 243 243 244 244 243 241 240 239 240 242 244 243 240 235 234 239 247
238 245 245 241 238 236 232 227 224 223 224 229 233 236 235 229 228 230 224 219 223 225 222 221 222 223 225 227 230 233 236 238 240 240 240 242 243 245 249 253 255 255 254 252 249 246 244 243 243 242 242 243 241 239 238 241 244 246 245 243 242 244 249
247 253 250 245 243 242 238 230 224 221 222 228 234 236 230 224 226 229 222 218 223 226 224 222 223 223 225 227 230 233 237 240 243 244 244 244 245 249 253 255 255 256 255 254 251 248 245 244 243 243 244 244 242 238 236 239 243 247 250 250 249 249 251
260 268 263 253 249 246 241 233 227 224 223 226 232 230 222 219 224 225 217 215 219 221 224 225 225 225 227 228 231 234 238 241 243 245 245 247 249 252 254 253 253 255 255 254 251 248 246 244 244 245 244 242 239 237 236 238 241 246 250 254 255 254 254
268 278 275 267 262 254 242 233 229 225 221 217 221 222 215 211 217 219 216 214 215 217 221 225 227 228 229 231 234 236 239 241 242 244 246 248 250 251 251 252 254 256 255 253 250 247 245 244 244 245 243 239 236 238 240 241 243 245 249 255 258 259 259
270 277 275 272 273 261 242 230 228 226 222 215 215 218 217 216 217 217 217 216 216 219 222 225 227 228 229 232 234 236 238 240 240 242 244 246 248 249 250 253 255 255 253 252 249 246 244 242 242 242 241 239 238 240 242 244 246 248 250 253 257 261 263
271 276 275 271 268 253 235 227 227 228 225 221 219 221 226 230 225 216 216 218 220 222 223 224 226 227 229 232 234 235 237 237 238 239 242 245 247 250 252 253 254 252 251 250 247 244 242 242 241 240 240 241 240 241 243 245 247 251 254 256 257 260 263
269 270 270 267 260 243 228 226 230 231 230 229 226 223 227 230 224 216 218 221 222 224 224 223 225 226 228 231 233 234 235 236 238 241 244 247 249 249 251 251 251 251 250 248 245 243 243 243 242 242 242 243 244 245 246 247 249 252 256 258 259 259 260
265 264 263 262 258 247 238 236 237 235 234 234 231 228 228 224 219 221 226 225 224 226 225 223 224 226 228 231 233 235 236 238 241 244 247 249 249 250 250 250 249 248 247 246 244 242 243 245 246 246 247 249 251 252 252 252 252 252 254 255 256 258 258
261 261 260 259 258 254 249 246 244 241 237 233 230 232 230 221 218 228 234 229 228 229 228 227 227 228 230 232 235 237 239 241 244 246 248 249 249 250 251 249 248 246 244 244 243 242 243 245 247 248 250 252 253 254 255 254 253 253 253 254 255 256 257
261 261 260 259 258 256 252 249 248 246 241 234 231 232 227 219 222 235 239 235 234 233 233 232 231 231 232 235 237 239 242 245 247 247 247 248 249 249 249 248 247 245 244 243 243 242 241 242 244 247 250 253 254 255 256 257 258 258 258 258 258 258 258
263 262 260 260 258 254 251 251 251 250 245 237 233 232 227 221 227 238 241 239 238 237 237 237 235 234 234 236 238 240 244 247 247 245 246 248 249 248 246 245 244 243 242 243 243 242 241 242 245 246 249 253 256 256 257 259 262 263 263 262 261 261 261
264 262 260 259 256 251 248 249 250 249 245 237 233 235 230 224 228 236 240 240 239 238 239 240 238 237 237 238 239 240 244 246 246 244 245 247 249 248 246 244 242 240 239 240 241 242 242 243 245 247 248 251 254 257 261 265 266 265 265 265 264 264 265
265 263 259 257 256 250 245 247 250 249 243 235 233 236 233 226 227 234 238 237 237 237 239 240 241 243 242 240 240 240 242 244 245 244 244 245 247 248 248 246 244 242 240 240 241 243 244 246 248 250 250 251 253 257 261 264 265 265 266 266 266 266 267
269 265 259 257 256 252 246 247 249 248 243 235 231 232 230 225 227 233 236 235 235 236 239 241 243 246 245 241 240 241 242 244 245 244 244 245 246 246 246 247 247 247 246 246 246 247 248 251 253 255 256 257 259 261 260 260 262 265 267 268 268 268 269
272 269 262 258 257 253 247 245 246 246 243 236 230 230 229 227 228 232 235 236 236 236 238 241 244 246 245 241 239 240 244 247 249 247 246 246 246 246 246 246 246 248 250 252 254 255 256 257 258 260 262 264 267 269 269 268 267 268 269 269 269 270 271
272 271 265 261 259 253 244 241 244 245 243 237 232 231 230 230 232 234 234 235 235 235 238 244 249 249 246 242 241 241 242 246 251 252 250 249 248 247 247 247 247 248 249 252 256 259 261 262 262 263 265 267 270 273 275 275 272 270 270 270 269 268 269
271 272 265 260 258 251 241 239 242 244 242 237 233 231 229 229 232 235 237 236 234 235 238 244 249 252 251 249 248 247 244 243 249 254 255 254 254 252 250 249 249 250 250 252 255 258 261 263 265 266 267 268 270 273 275 276 275 272 269 267 266 267 267
275 275 266 256 251 245 238 236 237 240 242 238 233 230 228 229 231 234 237 236 233 234 236 239 243 249 251 251 252 253 251 246 244 250 255 258 261 262 260 258 256 255 254 254 256 258 261 263 265 266 268 269 270 271 273 275 275 273 270 268 267 268 269
281 281 276 267 256 242 236 235 233 232 235 238 237 234 232 232 232 232 235 237 234 234 236 237 239 242 246 248 249 252 254 249 244 246 252 255 258 260 263 265 265 263 261 260 261 262 263 263 263 264 266 268 269 271 273 274 275 275 274 272 271 272 274
282 283 283 283 267 241 232 234 232 227 226 230 233 233 231 231 231 231 233 236 234 234 236 238 240 242 244 246 246 247 249 249 248 250 252 252 252 252 254 259 262 264 265 263 262 261 260 260 259 260 264 267 268 269 270 272 273 273 274 274 274 275 276
277 275 274 281 275 245 229 228 227 224 223 225 228 227 226 227 228 230 232 235 235 235 237 240 242 243 243 245 245 243 243 246 249 251 251 251 251 251 252 255 257 259 260 260 258 256 255 255 257 260 265 267 266 265 266 268 269 269 269 271 272 272 272
Height
5777 5777 5777 5778 5778 5779 5780 5780 5780 5780 5780 5780 5781 5782 5782 5784 5785 5785 5787 5790 5790 5792 5792 5793 5793 5794 5796 5798 5799 5801 5802 5803 5804 5804 5805 5806 5806 5807 5808 5809 5809 5810 5810 5811 5811 5811 5812 5812 5812 5813 5813 5813 5812 5811 5810 5811 5812 5812 5813 5813 5812 5812 5812
5774 5774 5774 5775 5775 5776 5777 5776 5777 5777 5777 5778 5779 5779 5779 5781 5783 5783 5785 5787 5788 5789 5791 5791 5792 5793 5795 5796 5797 5799 5800 5801 5802 5803 5804 5804 5805 5806 5807 5808 5808 5809 5809 5810 5810 5810 5810 5811 5811 5811 5812 5812 5811 5810 5809 5810 5811 5811 5812 5812 5811 5811 5811
5769 5770 5770 5771 5772 5773 5773 5773 5774 5774 5774 5775 5776 5776 5776 5778 5780 5782 5784 5785 5786 5788 5789 5790 5791 5792 5793 5794 5795 5797 5798 5800 5801 5802 5803 5803 5804 5805 5806 5806 5807 5807 5808 5808 5809 5809 5809 5810 5810 5810 5811 5811 5810 5809 5808 5809 5809 5810 5811 5810 5810 5810 5809
5765 5767 5768 5769 5769 5769 5770 5770 5771 5772 5772 5773 5773 5772 5773 5775 5777 5779 5781 5783 5784 5786 5787 5789 5789 5790 5791 5792 5793 5795 5797 5799 5800 5801 5802 5802 5803 5804 5804 5805 5805 5806 5807 5807 5808 5808 5808 5809 5809 5809 5810 5810 5809 5808 5807 5808 5808 5809 5809 5809 5808 5808 5808
5763 5765 5765 5766 5766 5766 5766 5766 5767 5769 5770 5770 5770 5770 5771 5774 5776 5777 5778 5780 5782 5783 5785 5786 5787 5788 5789 5791 5792 5794 5796 5797 5798 5799 5800 5801 5801 5802 5803 5803 5803 5804 5805 5806 5806 5807 5807 5807 5807 5807 5808 5809 5808 5807 5806 5806 5807 5807 5808 5807 5807 5807 5807
5760 5761 5762 5763 5764 5764 5763 5763 5764 5766 5767 5768 5768 5768 5769 5771 5773 5775 5777 5778 5779 5781 5782 5783 5785 5786 5788 5789 5790 5792 5793 5795 5796 5797 5798 5799 5799 5800 5801 5802 5802 5803 5804 5804 5805 5805 5806 5806 5806 5806 5807 5807 5807 5806 5805 5805 5805 5806 5806 5806 5805 5805 5805
5756 5757 5759 5760 5761 5761 5761 5761 5761 5763 5764 5765 5765 5766 5766 5767 5769 5773 5775 5775 5776 5778 5780 5781 5783 5784 5786 5787 5788 5790 5791 5792 5794 5795 5796 5796 5797 5798 5799 5800 5801 5801 5802 5802 5803 5804 5804 5804 5805 5805 5805 5805 5805 5804 5803 5803 5804 5804 5804 5804 5804 5804 5804
5753 5754 5755 5757 5758 5759 5759 5759 5759 5760 5761 5762 5762 5763 5764 5765 5767 5770 5772 5773 5774 5775 5777 5779 5781 5783 5784 5785 5786 5788 5789 5790 5791 5792 5793 5794 5795 5796 5797 5798 5799 5800 5800 5801 5801 5802 5802 5802 5803 5803 5803 5803 5803 5803 5802 5801 5801 5801 5802 5803 5802 5802 5803
5750 5752 5753 5754 5755 5757 5757 5757 5758 5759 5759 5759 5760 5762 5762 5763 5765 5767 5768 5770 5772 5773 5774 5776 5778 5781 5781 5782 5783 5785 5786 5788 5788 5790 5791 5792 5793 5794 5795 5796 5797 5797 5798 5799 5799 5800 5800 5800 5801 5801 5801 5801 5801 5801 5800 5799 5799 5799 5800 5801 5801 5801 5801
5746 5748 5749 5751 5753 5754 5755 5755 5756 5757 5757 5757 5758 5760 5761 5761 5762 5764 5766 5768 5770 5771 5772 5773 5775 5778 5779 5779 5780 5782 5784 5786 5787 5788 5789 5790 5791 5792 5793 5794 5794 5795 5796 5796 5797 5798 5799 5799 5798 5799 5799 5799 5799 5799 5797 5797 5797 5797 5798 5799 5799 5799 5800
5743 5746 5747 5748 5749 5751 5752 5753 5754 5755 5755 5755 5757 5758 5759 5759 5760 5762 5764 5766 5768 5769 5771 5772 5773 5775 5776 5777 5778 5779 5782 5784 5785 5786 5786 5788 5789 5790 5791 5791 5792 5793 5793 5794 5794 5795 5796 5797 5796 5796 5797 5797 5797 5796 5795 5794 5794 5795 5796 5797 5797 5797 5798
5741 5743 5744 5745 5746 5748 5749 5750 5752 5753 5753 5754 5755 5756 5757 5758 5758 5760 5762 5764 5765 5767 5769 5770 5771 5772 5773 5774 5776 5777 5780 5782 5783 5784 5784 5785 5786 5787 5788 5789 5790 5790 5791 5791 5792 5793 5793 5794 5794 5794 5794 5794 5794 5793 5793 5792 5792 5793 5794 5795 5796 5796 5796
5739 5740 5741 5742 5743 5745 5746 5746 5748 5750 5751 5752 5753 5754 5755 5756 5757 5758 5760 5762 5763 5765 5767 5767 5768 5770 5771 5773 5774 5776 5777 5779 5781 5782 5782 5783 5784 5785 5786 5787 5787 5788 5788 5789 5789 5790 5790 5791 5791 5791 5792 5792 5791 5791 5791 5790 5790 5791 5792 5793 5794 5794 5794
5737 5738 5738 5739 5740 5742 5743 5744 5744 5745 5747 5748 5750 5752 5753 5753 5755 5756 5757 5759 5760 5762 5764 5765 5766 5768 5769 5771 5773 5774 5775 5777 5778 5779 5780 5781 5782 5782 5783 5784 5785 5786 5786 5786 5787 5787 5787 5788 5788 5788 5789 5789 5789 5789 5788 5788 5788 5790 5791 5792 5792 5792 5792
5735 5736 5736 5737 5738 5738 5739 5740 5741 5742 5743 5745 5747 5749 5750 5751 5753 5753 5754 5756 5758 5759 5761 5763 5764 5766 5767 5769 5770 5772 5773 5774 5775 5776 5778 5779 5779 5780 5781 5782 5782 5783 5783 5783 5784 5784 5784 5785 5785 5786 5786 5787 5787 5787 5786 5786 5786 5787 5789 5790 5790 5790 5790
5733 5734 5734 5735 5735 5735 5736 5737 5738 5740 5740 5742 5744 5747 5748 5749 5750 5751 5752 5754 5755 5757 5759 5761 5762 5763 5764 5766 5767 5769 5770 5772 5773 5774 5775 5776 5776 5777 5778 5779 5779 5780 5780 5781 5781 5781 5782 5782 5782 5783 5784 5784 5784 5784 5784 5784 5784 5785 5786 5787 5788 5788 5788
5730 5731 5732 5732 5733 5733 5733 5734 5736 5737 5738 5740 5742 5744 5745 5746 5747 5748 5749 5751 5753 5754 5756 5758 5759 5760 5761 5763 5764 5766 5767 5769 5770 5771 5772 5773 5774 5775 5775 5776 5776 5777 5778 5778 5778 5779 5779 5780 5780 5780 5781 5781 5781 5782 5782 5781 5782 5782 5783 5785 5786 5786 5786
5728 5729 5729 5729 5729 5730 5731 5732 5733 5734 5735 5737 5738 5739 5741 5742 5743 5745 5746 5748 5750 5752 5754 5755 5757 5757 5758 5760 5761 5763 5764 5765 5767 5768 5769 5770 5771 5772 5773 5773 5773 5774 5774 5775 5775 5776 5776 5777 5778 5778 5778 5779 5779 5779 5779 5779 5780 5780 5781 5781 5783 5784 5784
5726 5727 5726 5725 5725 5726 5727 5729 5730 5731 5732 5734 5735 5736 5737 5739 5741 5742 5743 5745 5748 5750 5752 5753 5754 5755 5756 5757 5758 5759 5761 5762 5764 5765 5766 5767 5768 5769 5770 5770 5770 5771 5771 5771 5772 5772 5773 5774 5775 5775 5776 5776 5776 5776 5777 5777 5778 5778 5778 5778 5779 5780 5781
5723 5723 5723 5722 5722 5723 5724 5726 5727 5727 5728 5731 5733 5734 5735 5737 5738 5740 5741 5743 5745 5747 5749 5751 5752 5752 5753 5754 5755 5756 5758 5759 5761 5762 5763 5764 5765 5766 5767 5767 5767 5768 5768 5768 5769 5770 5771 5772 5772 5773 5773 5774 5774 5774 5774 5775 5776 5776 5776 5776 5776 5777 5778
5721 5720 5720 5720 5720 5721 5722 5724 5725 5725 5726 5727 5730 5732 5734 5735 5736 5737 5739 5741 5743 5745 5747 5748 5748 5749 5750 5751 5752 5753 5755 5756 5758 5759 5760 5761 5762 5763 5763 5764 5764 5765 5765 5765 5766 5767 5768 5769 5769 5770 5771 5772 5772 5772 5773 5773 5774 5774 5774 5774 5774 5774 5775
5718 5718 5718 5718 5718 5718 5720 5722 5723 5724 5725 5725 5726 5729 5731 5732 5734 5735 5737 5739 5741 5742 5743 5744 5745 5746 5747 5748 5749 5751 5752 5753 5755 5756 5757 5758 5759 5759 5759 5760 5760 5761 5762 5763 5764 5764 5765 5766 5767 5768 5768 5769 5770 5770 5771 5772 5772 5772 5772 5772 5772 5772 5772
5716 5716 5716 5716 5716 5717 5718 5720 5721 5722 5723 5723 5723 5725 5727 5729 5731 5733 5734 5736 5737 5738 5739 5741 5742 5743 5744 5745 5747 5748 5749 5750 5752 5753 5754 5755 5755 5755 5756 5756 5757 5758 5759 5760 5761 5762 5762 5763 5764 5765 5765 5766 5767 5767 5768 5770 5770 5770 5769 5769 5768 5768 5768
5713 5713 5713 5713 5714 5715 5716 5718 5719 5720 5720 5720 5721 5722 5724 5726 5728 5730 5731 5733 5734 5735 5736 5738 5739 5740 5741 5742 5743 5745 5746 5747 5749 5750 5750 5751 5751 5751 5752 5753 5754 5755 5755 5756 5757 5759 5760 5760 5761 5762 5762 5763 5764 5764 5765 5766 5767 5767 5767 5766 5765 5765 5764
5710 5710 5710 5711 5711 5712 5713 5715 5715 5716 5716 5717 5718 5719 5721 5723 5725 5727 5728 5730 5730 5731 5733 5735 5736 5737 5738 5739 5740 5741 5743 5744 5745 5746 5746 5746 5747 5748 5749 5750 5751 5751 5752 5753 5754 5756 5757 5758 5758 5758 5759 5759 5760 5760 5761 5762 5762 5763 5763 5762 5762 5761 5760
5707 5707 5707 5707 5707 5708 5709 5710 5711 5711 5712 5713 5714 5716 5718 5720 5722 5723 5725 5726 5727 5728 5729 5731 5732 5734 5735 5736 5737 5738 5739 5740 5741 5742 5742 5742 5743 5744 5745 5746 5747 5748 5749 5750 5751 5752 5754 5754 5754 5754 5755 5755 5756 5756 5757 5757 5757 5758 5758 5758 5757 5757 5756
5703 5704 5704 5704 5704 5704 5705 5706 5706 5707 5708 5709 5710 5712 5714 5717 5718 5719 5721 5722 5723 5724 5726 5728 5729 5730 5731 5733 5734 5735 5736 5736 5737 5738 5739 5739 5740 5741 5741 5742 5743 5744 5745 5746 5747 5749 5750 5750 5750 5751 5751 5752 5752 5752 5752 5752 5753 5753 5753 5752 5752 5752 5752
5699 5700 5700 5700 5699 5699 5701 5702 5702 5703 5704 5704 5706 5708 5710 5713 5714 5715 5716 5718 5719 5720 5723 5724 5725 5726 5728 5729 5731 5731 5732 5733 5734 5735 5736 5736 5736 5737 5737 5738 5739 5740 5741 5742 5743 5744 5746 5747 5747 5747 5748 5748 5747 5747 5749 5749 5748 5748 5747 5747 5747 5747 5747
5696 5696 5696 5696 5695 5695 5697 5698 5698 5699 5700 5701 5702 5704 5706 5708 5710 5711 5712 5713 5715 5717 5719 5721 5722 5723 5724 5725 5726 5727 5728 5729 5730 5732 5733 5733 5733 5734 5734 5734 5735 5736 5737 5738 5739 5740 5741 5743 5743 5744 5745 5745 5744 5745 5747 5745 5742 5742 5742 5742 5742 5742 5742
5691 5692 5691 5691 5691 5692 5693 5694 5694 5695 5696 5697 5699 5701 5703 5704 5705 5707 5708 5709 5711 5713 5716 5718 5718 5719 5720 5721 5722 5723 5724 5725 5727 5728 5730 5730 5730 5731 5731 5731 5732 5732 5733 5734 5735 5736 5737 5738 5739 5739 5740 5740 5740 5741 5742 5741 5738 5738 5737 5737 5737 5738 5737
5687 5687 5687 5686 5687 5688 5689 5690 5690 5691 5692 5693 5695 5698 5699 5699 5701 5703 5705 5706 5707 5709 5712 5714 5715 5716 5717 5717 5718 5719 5720 5722 5723 5724 5726 5727 5727 5728 5728 5728 5729 5729 5730 5730 5731 5732 5733 5734 5734 5735 5735 5736 5736 5736 5737 5736 5735 5734 5734 5733 5733 5733 5732
5683 5683 5683 5682 5682 5683 5684 5686 5687 5687 5689 5690 5691 5694 5695 5695 5698 5700 5701 5702 5704 5706 5709 5710 5711 5712 5713 5713 5714 5715 5716 5718 5719 5720 5721 5722 5723 5724 5724 5725 5725 5726 5726 5727 5727 5727 5728 5728 5729 5730 5730 5730 5731 5730 5731 5731 5730 5730 5729 5728 5728 5727 5726
5679 5679 5678 5678 5678 5678 5680 5681 5683 5684 5685 5686 5687 5689 5691 5692 5694 5696 5697 5699 5700 5703 5705 5707 5707 5708 5709 5710 5711 5712 5712 5713 5715 5716 5717 5718 5719 5720 5720 5721 5722 5722 5723 5723 5724 5723 5723 5723 5724 5724 5725 5725 5725 5725 5725 5725 5724 5724 5723 5722 5721 5721 5720
5675 5674 5674 5673 5673 5674 5675 5677 5678 5680 5681 5682 5683 5685 5687 5688 5690 5692 5693 5694 5696 5698 5700 5701 5702 5704 5705 5706 5707 5708 5709 5710 5711 5712 5713 5714 5714 5715 5715 5716 5717 5718 5718 5719 5719 5719 5719 5719 5719 5719 5719 5719 5719 5719 5719 5718 5718 5717 5717 5716 5715 5715 5714
5670 5670 5669 5669 5669 5670 5671 5672 5673 5675 5676 5678 5680 5681 5683 5684 5686 5687 5688 5689 5692 5694 5695 5696 5697 5698 5699 5701 5702 5704 5705 5706 5707 5708 5709 5710 5710 5710 5711 5712 5712 5712 5713 5714 5714 5714 5714 5714 5714 5713 5713 5713 5713 5713 5713 5713 5712 5711 5711 5710 5710 5709 5709
5668 5667 5666 5666 5666 5666 5666 5667 5668 5669 5671 5673 5675 5677 5678 5680 5681 5683 5684 5685 5687 5688 5689 5691 5692 5693 5694 5696 5698 5700 5701 5701 5702 5704 5704 5705 5705 5706 5707 5707 5707 5707 5707 5708 5709 5709 5708 5709 5708 5708 5707 5707 5708 5708 5708 5707 5707 5706 5706 5705 5705 5705 5704
5666 5665 5665 5665 5664 5663 5663 5662 5662 5663 5665 5667 5668 5670 5672 5674 5676 5677 5678 5680 5682 5683 5684 5686 5687 5688 5690 5691 5693 5695 5696 5697 5697 5698 5698 5699 5700 5701 5702 5703 5702 5702 5702 5703 5703 5703 5703 5703 5702 5702 5702 5702 5702 5702 5702 5702 5702 5701 5701 5701 5700 5700 5699